| time (UTC) | temp F | wind direction | speed MPH | gust MPH | rain 1hr in | rain 24hr in | rain mn in | humidity % | barometer mb |
| 20260510185512 | 55 | 53 | 0.0 | 0.0 | 0.00 | 0.06 | 0.06 | 72 | 1010.9 |
| 20260510183509 | 55 | 53 | 1.0 | 3.0 | 0.00 | 0.06 | 0.06 | 70 | 1010.9 |
| 20260510182504 | 55 | 53 | 2.0 | 3.0 | 0.00 | 0.06 | 0.06 | 70 | 1010.8 |
| 20260510181504 | 55 | 53 | 2.0 | 3.0 | 0.00 | 0.06 | 0.06 | 69 | 1010.8 |
| 20260510180505 | 56 | 53 | 1.0 | 4.0 | 0.00 | 0.06 | 0.06 | 69 | 1010.8 |
| 20260510175505 | 56 | 192 | 1.0 | 3.0 | 0.00 | 0.06 | 0.06 | 68 | 1010.7 |
| 20260510174504 | 57 | 192 | 0.0 | 0.0 | 0.00 | 0.06 | 0.06 | 68 | 1010.9 |
| 20260510173504 | 57 | 192 | 0.0 | 2.0 | 0.00 | 0.06 | 0.06 | 67 | 1010.8 |
| 20260510172506 | 57 | 192 | 0.0 | 2.0 | 0.00 | 0.06 | 0.06 | 69 | 1010.7 |
| 20260510171504 | 57 | 194 | 1.0 | 3.0 | 0.00 | 0.06 | 0.06 | 69 | 1010.8 |
| 20260510170502 | 57 | 207 | 3.0 | 5.0 | 0.00 | 0.06 | 0.06 | 69 | 1010.9 |
| 20260510165503 | 57 | 215 | 3.0 | 7.0 | 0.00 | 0.06 | 0.06 | 69 | 1011.2 |
| 20260510164501 | 57 | 248 | 6.0 | 9.0 | 0.00 | 0.06 | 0.06 | 69 | 1011.3 |
| 20260510163501 | 57 | 261 | 8.0 | 13.0 | 0.00 | 0.06 | 0.06 | 68 | 1011.5 |
| 20260510162458 | 57 | 271 | 7.0 | 12.0 | 0.01 | 0.06 | 0.06 | 68 | 1011.5 |
| 20260510161459 | 57 | 272 | 5.0 | 10.0 | 0.01 | 0.06 | 0.06 | 70 | 1011.4 |
| 20260510160459 | 57 | 168 | 3.0 | 9.0 | 0.01 | 0.06 | 0.06 | 71 | 1011.5 |
| 20260510155510 | 56 | 184 | 2.0 | 7.0 | 0.01 | 0.06 | 0.06 | 71 | 1011.6 |
| 20260510154500 | 56 | 235 | 5.0 | 9.0 | 0.01 | 0.06 | 0.06 | 71 | 1011.6 |
| 20260510153455 | 56 | 246 | 5.0 | 9.0 | 0.01 | 0.06 | 0.06 | 71 | 1011.7 |
| 20260510152458 | 56 | 259 | 6.0 | 12.0 | 0.00 | 0.05 | 0.05 | 71 | 1011.9 |
| 20260510151453 | 56 | 240 | 6.0 | 11.0 | 0.00 | 0.05 | 0.05 | 73 | 1011.9 |
| 20260510150455 | 56 | 223 | 6.0 | 11.0 | 0.01 | 0.05 | 0.05 | 74 | 1012.0 |
| 20260510145455 | 56 | 245 | 6.0 | 9.0 | 0.01 | 0.05 | 0.05 | 74 | 1012.1 |
| 20260510144455 | 56 | 231 | 6.0 | 11.0 | 0.01 | 0.05 | 0.05 | 74 | 1012.0 |
| 20260510143454 | 56 | 259 | 4.0 | 8.0 | 0.02 | 0.05 | 0.05 | 74 | 1012.1 |
| 20260510142456 | 56 | 230 | 5.0 | 9.0 | 0.03 | 0.05 | 0.05 | 73 | 1012.1 |
| 20260510141455 | 56 | 213 | 5.0 | 12.0 | 0.05 | 0.05 | 0.05 | 74 | 1012.1 |
| 20260510140455 | 56 | 228 | 6.0 | 9.0 | 0.04 | 0.04 | 0.04 | 73 | 1012.1 |
| 20260510135453 | 56 | 268 | 7.0 | 14.0 | 0.04 | 0.04 | 0.04 | 72 | 1012.2 |
| 20260510134454 | 56 | 247 | 7.0 | 12.0 | 0.04 | 0.04 | 0.04 | 71 | 1012.2 |
| 20260510133454 | 57 | 228 | 6.0 | 12.0 | 0.03 | 0.03 | 0.03 | 68 | 1012.3 |
| 20260510132454 | 58 | 269 | 9.0 | 14.0 | 0.02 | 0.02 | 0.02 | 66 | 1012.3 |
| 20260510131456 | 59 | 249 | 9.0 | 14.0 | 0.00 | 0.00 | 0.00 | 64 | 1012.1 |
| 20260510125455 | 61 | 256 | 8.0 | 12.0 | 0.00 | 0.00 | 0.00 | 59 | 1011.9 |
| 20260510123452 | 61 | 274 | 8.0 | 13.0 | 0.00 | 0.00 | 0.00 | 58 | 1011.9 |
| 20260510122452 | 62 | 288 | 8.0 | 11.0 | 0.00 | 0.00 | 0.00 | 58 | 1011.8 |
| 20260510120452 | 62 | 271 | 7.0 | 10.0 | 0.00 | 0.00 | 0.00 | 57 | 1011.8 |
| 20260510112453 | 62 | 286 | 6.0 | 10.0 | 0.00 | 0.00 | 0.00 | 57 | 1011.7 |
| 20260510111451 | 62 | 250 | 5.0 | 8.0 | 0.00 | 0.00 | 0.00 | 56 | 1011.8 |
| 20260510110451 | 62 | 234 | 4.0 | 9.0 | 0.00 | 0.00 | 0.00 | 57 | 1011.8 |
| 20260510105452 | 63 | 234 | 3.0 | 7.0 | 0.00 | 0.00 | 0.00 | 56 | 1011.9 |
| 20260510104449 | 63 | 266 | 1.0 | 4.0 | 0.00 | 0.00 | 0.00 | 55 | 1011.9 |
| 20260510103446 | 63 | 247 | 3.0 | 6.0 | 0.00 | 0.00 | 0.00 | 56 | 1012.0 |
| 20260510102444 | 63 | 316 | 2.0 | 6.0 | 0.00 | 0.00 | 0.00 | 56 | 1011.9 |
| 20260510101442 | 62 | 263 | 2.0 | 4.0 | 0.00 | 0.00 | 0.00 | 57 | 1012.0 |
| 20260510100442 | 62 | 312 | 4.0 | 6.0 | 0.00 | 0.00 | 0.00 | 55 | 1012.2 |
| 20260510095442 | 61 | 325 | 6.0 | 9.0 | 0.00 | 0.00 | 0.00 | 55 | 1012.2 |
| 20260510094441 | 61 | 309 | 4.0 | 7.0 | 0.00 | 0.00 | 0.00 | 56 | 1012.2 |
| 20260510093437 | 61 | 266 | 5.0 | 9.0 | 0.00 | 0.00 | 0.00 | 57 | 1012.4 |
| 20260510092438 | 61 | 288 | 5.0 | 8.0 | 0.00 | 0.00 | 0.00 | 57 | 1012.4 |
| 20260510091437 | 61 | 301 | 6.0 | 8.0 | 0.00 | 0.00 | 0.00 | 57 | 1012.6 |
| 20260510085436 | 60 | 250 | 5.0 | 9.0 | 0.00 | 0.00 | 0.00 | 58 | 1012.5 |
| 20260510083436 | 60 | 257 | 8.0 | 12.0 | 0.00 | 0.00 | 0.00 | 59 | 1012.5 |
| 20260510082436 | 60 | 295 | 8.0 | 13.0 | 0.00 | 0.00 | 0.00 | 58 | 1012.5 |
| 20260510081436 | 59 | 266 | 10.0 | 14.0 | 0.00 | 0.00 | 0.00 | 59 | 1012.6 |
| 20260510080436 | 59 | 244 | 7.0 | 14.0 | 0.00 | 0.00 | 0.00 | 59 | 1012.8 |
| 20260510075435 | 58 | 265 | 8.0 | 13.0 | 0.00 | 0.00 | 0.00 | 59 | 1012.8 |
| 20260510074435 | 58 | 209 | 6.0 | 12.0 | 0.00 | 0.00 | 0.00 | 61 | 1013.0 |
| 20260510071436 | 56 | 212 | 6.0 | 10.0 | 0.00 | 0.00 | 0.00 | 64 | 1013.2 |
| 20260510064435 | 56 | 242 | 2.0 | 4.0 | 0.00 | 0.00 | 0.00 | 65 | 1012.9 |
| 20260510062432 | 55 | 204 | 0.0 | 2.0 | 0.00 | 0.00 | 0.00 | 66 | 1012.8 |
| 20260510061433 | 55 | 203 | 2.0 | 5.0 | 0.00 | 0.00 | 0.00 | 66 | 1012.9 |
| 20260510060431 | 54 | 202 | 2.0 | 5.0 | 0.00 | 0.00 | 0.00 | 65 | 1012.9 |
| 20260510055431 | 55 | 171 | 0.0 | 0.0 | 0.00 | 0.00 | 0.00 | 65 | 1012.8 |
| 20260510054429 | 55 | 171 | 0.0 | 0.0 | 0.00 | 0.00 | 0.00 | 65 | 1012.6 |
| 20260510053431 | 55 | 171 | 0.0 | 0.0 | 0.00 | 0.00 | 0.00 | 65 | 1012.4 |
| 20260510052429 | 54 | 159 | 0.0 | 2.0 | 0.00 | 0.00 | 0.00 | 65 | 1012.4 |
| 20260510051429 | 54 | 163 | 0.0 | 2.0 | 0.00 | 0.00 | 0.00 | 66 | 1012.4 |
| 20260510050430 | 53 | 163 | 2.0 | 4.0 | 0.00 | 0.00 | 0.00 | 66 | 1012.5 |
| 20260510045429 | 53 | 163 | 2.0 | 5.0 | 0.00 | 0.00 | 0.00 | 66 | 1012.4 |
| 20260510044429 | 53 | 163 | 2.0 | 4.0 | 0.00 | 0.00 | 0.00 | 65 | 1012.5 |
| 20260510043429 | 53 | 163 | 0.0 | 2.0 | 0.00 | 0.00 | 0.00 | 65 | 1012.6 |
| 20260510042431 | 53 | 167 | 0.0 | 1.0 | 0.00 | 0.00 | 0.00 | 65 | 1012.6 |
| 20260510041430 | 53 | 167 | 1.0 | 3.0 | 0.00 | 0.00 | 0.00 | 65 | 1012.5 |
| 20260510040424 | 53 | 188 | 1.0 | 3.0 | 0.00 | 0.01 | 0.00 | 65 | 1012.6 |
| 20260510035423 | 54 | 188 | 3.0 | 7.0 | 0.00 | 0.01 | 0.00 | 64 | 1012.9 |
| 20260510034423 | 53 | 173 | 1.0 | 7.0 | 0.00 | 0.01 | 0.00 | 65 | 1012.9 |
| 20260510033426 | 53 | 129 | 0.0 | 2.0 | 0.00 | 0.01 | 0.00 | 66 | 1012.8 |
| 20260510032423 | 53 | 129 | 2.0 | 3.0 | 0.00 | 0.01 | 0.00 | 66 | 1012.9 |
| 20260510031424 | 53 | 76 | 0.0 | 0.0 | 0.00 | 0.01 | 0.00 | 66 | 1012.9 |
| 20260510030423 | 53 | 76 | 0.0 | 0.0 | 0.00 | 0.01 | 0.00 | 66 | 1012.8 |
| 20260510024425 | 54 | 76 | 0.0 | 0.0 | 0.00 | 0.01 | 0.00 | 65 | 1013.0 |
| 20260510023418 | 54 | 76 | 0.0 | 2.0 | 0.00 | 0.01 | 0.00 | 65 | 1013.1 |
| 20260510022417 | 54 | 76 | 1.0 | 3.0 | 0.00 | 0.01 | 0.00 | 65 | 1013.1 |
| 20260510021417 | 55 | 76 | 1.0 | 3.0 | 0.00 | 0.01 | 0.00 | 65 | 1013.2 |
| 20260510020418 | 56 | 76 | 2.0 | 4.0 | 0.00 | 0.01 | 0.00 | 63 | 1013.1 |
| 20260510015417 | 55 | 76 | 2.0 | 4.0 | 0.00 | 0.01 | 0.00 | 63 | 1013.1 |
| 20260510014418 | 55 | 117 | 4.0 | 7.0 | 0.00 | 0.01 | 0.00 | 64 | 1013.2 |
| 20260510013418 | 56 | 113 | 1.0 | 6.0 | 0.00 | 0.01 | 0.00 | 62 | 1013.2 |
| 20260510012418 | 56 | 136 | 0.0 | 2.0 | 0.00 | 0.01 | 0.00 | 62 | 1013.3 |
| 20260510011418 | 56 | 136 | 1.0 | 2.0 | 0.00 | 0.01 | 0.00 | 62 | 1013.3 |
| 20260510010413 | 56 | 136 | 1.0 | 2.0 | 0.00 | 0.01 | 0.00 | 62 | 1013.4 |
| 20260510005413 | 57 | 136 | 1.0 | 3.0 | 0.00 | 0.01 | 0.00 | 61 | 1013.4 |
| 20260510004415 | 57 | 136 | 1.0 | 3.0 | 0.00 | 0.01 | 0.00 | 60 | 1013.5 |
| 20260510003413 | 58 | 136 | 2.0 | 3.0 | 0.00 | 0.01 | 0.00 | 60 | 1013.6 |
| 20260510002412 | 58 | 136 | 3.0 | 7.0 | 0.00 | 0.01 | 0.00 | 60 | 1013.7 |
| 20260510001413 | 56 | 137 | 2.0 | 7.0 | 0.00 | 0.01 | 0.00 | 63 | 1013.7 |
| 20260510000414 | 56 | 76 | 0.0 | 2.0 | 0.00 | 0.01 | 0.00 | 62 | 1013.8 |
| 20260509235415 | 56 | 76 | 1.0 | 2.0 | 0.00 | 0.01 | 0.00 | 61 | 1013.9 |
| 20260509234411 | 57 | 76 | 2.0 | 2.0 | 0.00 | 0.01 | 0.00 | 61 | 1013.9 |
| 20260509233413 | 57 | 76 | 2.0 | 2.0 | 0.00 | 0.01 | 0.00 | 61 | 1013.9 |
| 20260509232411 | 57 | 76 | 2.0 | 3.0 | 0.00 | 0.01 | 0.00 | 61 | 1014.0 |
| 20260509231410 | 58 | 76 | 2.0 | 3.0 | 0.00 | 0.01 | 0.00 | 58 | 1014.1 |
| 20260509230411 | 58 | 76 | 1.0 | 3.0 | 0.00 | 0.01 | 0.00 | 57 | 1014.0 |
| 20260509225410 | 58 | 76 | 0.0 | 1.0 | 0.00 | 0.01 | 0.00 | 57 | 1014.1 |
| 20260509224410 | 59 | 76 | 1.0 | 3.0 | 0.00 | 0.01 | 0.00 | 57 | 1014.2 |
| 20260509222408 | 59 | 101 | 3.0 | 6.0 | 0.00 | 0.01 | 0.00 | 56 | 1014.2 |
| 20260509221408 | 59 | 99 | 3.0 | 4.0 | 0.00 | 0.01 | 0.00 | 58 | 1014.2 |
| 20260509220406 | 61 | 68 | 3.0 | 4.0 | 0.00 | 0.01 | 0.00 | 53 | 1014.4 |
| 20260509215406 | 62 | 67 | 1.0 | 3.0 | 0.00 | 0.01 | 0.01 | 52 | 1014.4 |
| 20260509214408 | 62 | 67 | 0.0 | 0.0 | 0.00 | 0.01 | 0.01 | 50 | 1014.5 |
| 20260509213407 | 62 | 67 | 0.0 | 0.0 | 0.00 | 0.01 | 0.01 | 49 | 1014.6 |
| 20260509210408 | 61 | 68 | 1.0 | 3.0 | 0.00 | 0.01 | 0.01 | 53 | 1014.7 |
| 20260509204408 | 62 | 67 | 3.0 | 4.0 | 0.00 | 0.01 | 0.01 | 52 | 1014.6 |
| 20260509203406 | 62 | 66 | 3.0 | 5.0 | 0.00 | 0.01 | 0.01 | 52 | 1014.6 |
| 20260509202404 | 62 | 67 | 2.0 | 3.0 | 0.00 | 0.01 | 0.01 | 50 | 1014.6 |
| 20260509201404 | 63 | 67 | 2.0 | 3.0 | 0.00 | 0.01 | 0.01 | 49 | 1014.6 |
| 20260509200404 | 63 | 67 | 2.0 | 4.0 | 0.00 | 0.01 | 0.01 | 48 | 1014.6 |
| 20260509195405 | 63 | 98 | 0.0 | 2.0 | 0.00 | 0.01 | 0.01 | 49 | 1014.7 |
| 20260509194405 | 63 | 98 | 1.0 | 2.0 | 0.00 | 0.01 | 0.01 | 49 | 1014.7 |
| 20260509192403 | 64 | 98 | 4.0 | 6.0 | 0.00 | 0.01 | 0.01 | 49 | 1014.5 |
| 20260509191403 | 63 | 91 | 5.0 | 8.0 | 0.00 | 0.01 | 0.01 | 49 | 1014.5 |
| 20260509190403 | 64 | 82 | 4.0 | 5.0 | 0.00 | 0.01 | 0.01 | 49 | 1014.5 |